Regional Weather Roundup
Issued by NWS Albany, NY

Home | Current Version | Previous Version | Text Only | Print | Product List | Glossary On
Versions: 1 2 3 4 5 6 7 8 9 10 11 12 13 14 15 16 17 18 19 20 21 22 23 24 25 26 27 28 29 30 31 32 33 34 35 36 37 38 39 40 41 42 43 44 45 46 47 48 49 50
000
ASUS41 KALY 050310
RWRALY

NEW YORK STATE HOURLY WEATHER ROUNDUP
NATIONAL WEATHER SERVICE ALBANY NY
1000 PM EST WED MAR 04 2015

NOTE: "FAIR" INDICATES FEW OR NO CLOUDS BELOW 12,000 FEET WITH NO
SIGNIFICANT WEATHER AND/OR NO OBSTRUCTIONS TO VISIBILITY.

NYZ032-033-038>043-046>054-057>066-NYZ062>081-050400-
EAST


CITY           SKY/WX    TMP DP  RH WIND       PRES   REMARKS
ALBANY         CLOUDY    35  22  58 NW13      29.92R WCI  26
GLENS FALLS    CLOUDY    34  20  56 VRB5      29.89R WCI  30
POUGHKEEPSIE   CLOUDY    35  31  85 SW3       29.88R
MONTGOMERY     CLOUDY    37  33  85 CALM      29.87R
WHITE PLAINS   LGT RAIN  40  38  93 CALM      29.88R VSB 1
NEW YORK CITY  LGT RAIN  43  39  86 SW8       29.91R FOG
CENTRAL PARK   LGT RAIN  42  38  85 SW7       29.92S FOG
$$

NYZ005>009-017-018-044>046-055-056-050400-
CENTRAL


CITY           SKY/WX    TMP DP  RH WIND       PRES   REMARKS
FULTON         CLOUDY    29  20  69 NW8       29.96R WCI  21
SYRACUSE       LGT SNOW  25  25 100 W9        29.96R FOG     WCI  15
ROME           CLOUDY    29  22  75 W10       29.95R WCI  20
ELMIRA         CLOUDY    34  23  64 NW3       29.93S
BINGHAMTON     CLOUDY    29  21  72 NW13      29.88S WCI  19
MONTICELLO     CLOUDY    36  30  80 W8        29.87R WCI  29
$$

NYZ026>034-041>043-050400-
NORTH


CITY           SKY/WX    TMP DP  RH WIND       PRES   REMARKS
WATERTOWN      CLOUDY    27  14  58 W8        29.97R WCI  19
FORT DRUM      NOT AVBL
MASSENA        CLOUDY    26   8  46 W21G28    29.90R WCI  12
SARANAC LAKE   CLOUDY    24  16  71 W14G23    29.77R WCI  12
PLATTSBURGH    CLOUDY    32  13  45 VRB7G20   29.83R WCI  26
$$

NYZ001>004-010>016-019>021-050400-
WEST


CITY           SKY/WX    TMP DP  RH WIND       PRES   REMARKS
NIAGARA FALLS  CLOUDY    27  18  69 NW14      30.00R WCI  16
BUFFALO        FLURRIES  28  22  78 NW10      29.99R WCI  19
DUNKIRK        CLOUDY    28  21  75 NW13      30.01R WCI  17
JAMESTOWN      CLOUDY    27  18  69 W10G16    29.95R WCI  17
WELLSVILLE     CLOUDY    27  17  66 W14G23    29.91R WCI  16
ROCHESTER      SNOW      28  25  88 NW9       29.98R VSB 1/2 WCI  19
PENN YAN       CLOUDY    31  20  63 W12G20    29.94R WCI  22
$$

             KEY
       WCI = WIND CHILL INDEX
       VSB = VISIBILITY
       HX  = HEAT INDEX
$$


USA.gov is the U.S. government's official web portal to all federal, state and local government web resources and services.